{"data":{"norad_id":66359,"epoch":"2026-09-20T17:49:16.434048Z","epoch_age_seconds":86513,"freshness":"FRESH","line1":"1 66359U 25254M   26263.74255132  .00028863  00000+0  93694-3 0  9995","line2":"2 66359  53.1606  44.7133 0002533  40.8807 319.2384 15.31743992 49999","mean_motion":15.31743992,"eccentricity":0.0002533,"inclination_deg":53.1606,"raan_deg":44.7133,"arg_perigee_deg":40.8807,"mean_anomaly_deg":319.2384,"bstar":0.00093694,"rev_number":4999,"period_min":94.010487883148,"perigee_km":468.87407317494,"apogee_km":472.34364782787,"semimajor_km":6848.7458605014,"source":"CELESTRAK","updated_at":"2026-09-21T09:00:35.881345Z"}}